Location: Aldenham
(51.6667°N, 0.3500°W)
Time: 22:07:36
(UTC+00:00)

Tiros 1 despin weight - All Passes

Search period start: 18 February 2026 00:00
Search period end: 28 February 2026 00:00
Orbit: 557 x 594 km, 48.2° (Epoch: 16 February)

Date Brightness Start Highest point End Pass type
(mag) Time Alt. Az. Time Alt. Az. Time Alt. Az.
18 Feb - 15:28:49 10° SW 15:32:27 29° SSE 15:36:07 10° E daylight
18 Feb - 17:08:30 10° WSW 17:12:35 52° S 17:16:41 10° E daylight
18 Feb - 18:48:51 10° W 18:52:51 43° SSW 18:56:51 10° ESE visible
18 Feb - 20:29:49 10° WSW 20:32:46 19° SSW 20:35:43 10° SSE visible
19 Feb - 13:53:04 10° S 13:55:03 13° SE 13:57:02 10° ESE daylight
19 Feb - 15:30:57 10° SW 15:34:49 36° SSE 15:38:40 10° E daylight
19 Feb - 17:10:54 10° WSW 17:15:00 54° S 17:19:07 10° ESE daylight
19 Feb - 18:51:21 10° W 18:55:13 37° SSW 18:59:06 10° SE visible
19 Feb - 20:32:52 10° WSW 20:34:59 14° SW 20:37:08 10° S visible
20 Feb - 13:54:24 10° S 13:57:17 18° SSE 14:00:09 10° ESE daylight
20 Feb - 15:33:11 10° SW 15:37:11 42° SSE 15:41:10 10° E daylight
20 Feb - 17:13:20 10° W 17:17:26 52° S 17:21:31 10° ESE daylight
20 Feb - 18:53:53 10° W 18:57:34 30° SSW 19:01:15 10° SE visible
21 Feb - 13:56:10 10° SSW 13:59:32 23° SSE 14:02:54 10° E daylight
21 Feb - 15:35:30 10° WSW 15:39:34 48° S 15:43:37 10° E daylight
21 Feb - 17:15:46 10° W 17:19:50 48° S 17:23:53 10° ESE daylight
21 Feb - 18:56:29 10° W 18:59:52 24° SSW 19:03:14 10° SSE visible
22 Feb - 13:58:08 10° SW 14:01:49 30° SSE 14:05:31 10° E daylight
22 Feb - 15:37:51 10° WSW 15:41:57 52° S 15:46:03 10° E daylight
22 Feb - 17:18:13 10° W 17:22:12 43° SSW 17:26:12 10° ESE daylight
22 Feb - 18:59:14 10° WSW 19:02:06 18° SSW 19:04:59 10° S visible
23 Feb - 12:22:15 10° S 12:24:23 14° SE 12:26:30 10° ESE daylight
23 Feb - 14:00:15 10° SW 14:04:09 36° SSE 14:08:01 10° E daylight
23 Feb - 15:40:14 10° WSW 15:44:21 54° S 15:48:27 10° ESE daylight
23 Feb - 17:20:41 10° W 17:24:33 36° SSW 17:28:25 10° SE daylight
23 Feb - 19:02:18 10° WSW 19:04:19 13° SW 19:06:19 10° S visible
24 Feb - 12:23:37 10° S 12:26:34 19° SSE 12:29:31 10° ESE daylight
24 Feb - 14:02:28 10° WSW 14:06:29 43° SSE 14:10:29 10° E daylight
24 Feb - 15:42:38 10° W 15:46:44 52° S 15:50:50 10° ESE daylight
24 Feb - 17:23:11 10° W 17:26:52 29° SSW 17:30:31 10° SE daylight
25 Feb - 12:25:22 10° SSW 12:28:48 24° SSE 12:32:13 10° E daylight
25 Feb - 14:04:45 10° WSW 14:08:50 49° S 14:12:55 10° E daylight
25 Feb - 15:45:02 10° W 15:49:06 48° S 15:53:09 10° ESE daylight
25 Feb - 17:25:47 10° W 17:29:07 23° SSW 17:32:27 10° SSE daylight
26 Feb - 12:27:19 10° SW 12:31:03 30° SSE 12:34:47 10° E daylight
26 Feb - 14:07:05 10° WSW 14:11:12 53° S 14:15:18 10° E daylight
26 Feb - 15:47:27 10° W 15:51:27 42° SSW 15:55:25 10° SE daylight
26 Feb - 17:28:30 10° WSW 17:31:20 18° SW 17:34:09 10° S daylight
27 Feb - 10:51:18 10° S 10:53:34 14° SE 10:55:49 10° ESE daylight
27 Feb - 12:29:25 10° SW 12:33:21 37° SSE 12:37:15 10° E daylight
27 Feb - 14:09:26 10° WSW 14:13:34 54° S 14:17:40 10° ESE daylight
27 Feb - 15:49:54 10° W 15:53:45 35° SSW 15:57:36 10° SE daylight
27 Feb - 17:31:35 10° WSW 17:33:29 13° SW 17:35:24 10° SSW daylight
